Location: Koszewko
(53.2876°N, 14.9061°E)
Time: 22:09:12
(UTC+00:00)

ATLAS CENTAUR R/B - Pass Details

Date: 03 March 2021
Orbit: 475 x 670 km, 64.7° (Epoch: 30 March)

Event Time Altitude Azimuth Distance (km) Brightness Sun altitude
Rises 18:20:32 0° 205° (SSW) 2,518 4.9 -15.4°
Reaches altitude 10° 18:22:42 10° 199° (SSW) 1,641 3.8 -15.7°
Maximum altitude 18:26:10 44° 127° (SE) 669 1.3 -16.2°
Enters shadow 18:27:02 37° 88° (E) 768 1.5 -16.4°
